Budapest Ferihegy, Hungary

11:48 PM CEST on August 17, 2017 (GMT +0200)
Ferihegy

Weather History for LHBP - September, 2012

Change the Weather History Date:

Sunday, September 23, 2012

  Actual Average Record
Temperature  
Mean Temperature 60 °F -  
Max Temperature 68 °F 61 °F 86 °F (2003)
Min Temperature 50 °F 42 °F 37 °F (1997)
Degree Days  
Heating Degree Days 6    
Growing Degree Days 10 (Base 50)    
Moisture  
Dew Point 45 °F    
Average Humidity 61    
Maximum Humidity 88    
Minimum Humidity 32    
Precipitation  
Precipitation 0.00 in - - ()
Sea Level Pressure  
Sea Level Pressure 30.07 in    
Wind  
Wind Speed 4 mph ()    
Max Wind Speed 12 mph    
Max Gust Speed -    
Visibility 6.2 miles    
Events Rain    
Averages and records for this station are not official NWS values.
T = Trace of Precipitation, MM = Missing Value Source: Averaged Metar Reports

Daily Weather History Graph

Daily Weather History Graph

Search for Another Location

Airport or City:

Trip Planner

Search our weather history database for the weather conditions in past years. The results will help you decide how hot, cold, wet, or windy it might be!

Date:

Astronomy

Sep. 23, 2012 Rise Set
Actual Time 6:31 AM CEST 6:38 PM CEST
Civil Twilight 6:00 AM CEST 7:08 PM CEST
Nautical Twilight 5:24 AM CEST 7:44 PM CEST
Astronomical Twilight 4:47 AM CEST 8:21 PM CEST
Moon 2:47 PM CEST (9/23) No Moon Set
Length of Visible Light 13h 08m
Length of Day
12h 06m
First Quarter, 57% of the Moon is Illuminated
Sep 23
First Quarter
Sep 30
Full
Oct 8
Last Quarter
Oct 15
New
Oct 22
First Quarter

Hourly Weather History & Observations

Time (CEST) Temp. Dew Point Humidity Pressure Visibility Wind Dir Wind Speed Gust Speed Precip Events Conditions
12:00 AM 59.0 °F 50.0 °F 72% 30.04 in - Variable 3.5 mph - N/A   Clear
12:30 AM 57.2 °F 51.8 °F 82% 30.06 in 6.2 mi Variable 2.3 mph - N/A   Mostly Cloudy
1:00 AM 59.0 °F 51.8 °F 77% 30.06 in 6.2 mi WNW 6.9 mph - N/A Rain Light Rain
1:30 AM 57.2 °F 50.0 °F 77% 30.06 in 6.2 mi West 5.8 mph - N/A   Mostly Cloudy
2:00 AM 59.0 °F 53.6 °F 82% 30.09 in 6.2 mi WNW 11.5 mph - N/A   Scattered Clouds
2:30 AM 59.0 °F 51.8 °F 77% 30.09 in - NW 5.8 mph - N/A   Clear
3:00 AM 57.2 °F 51.8 °F 82% 30.06 in 6.2 mi NNW 8.1 mph - N/A Rain Light Rain
3:30 AM 57.2 °F 50.0 °F 77% 30.09 in 6.2 mi NW 10.4 mph - N/A Rain Light Rain
4:00 AM 57.2 °F 50.0 °F 77% 30.09 in 6.2 mi NNW 5.8 mph - N/A   Mostly Cloudy
4:30 AM 55.4 °F 50.0 °F 82% 30.09 in - North 4.6 mph - N/A   Clear
5:00 AM 55.4 °F 48.2 °F 77% 30.09 in - NNW 4.6 mph - N/A   Clear
5:30 AM 55.4 °F 48.2 °F 77% 30.09 in - Variable 3.5 mph - N/A   Clear
6:00 AM 53.6 °F 48.2 °F 82% 30.09 in - Variable 3.5 mph - N/A   Clear
6:30 AM 53.6 °F 48.2 °F 82% 30.09 in - WNW 4.6 mph - N/A   Clear
7:00 AM 53.6 °F 48.2 °F 82% 30.09 in - Variable 2.3 mph - N/A   Clear
7:30 AM 53.6 °F 50.0 °F 88% 30.12 in - Variable 1.2 mph - N/A   Clear
8:00 AM 55.4 °F 50.0 °F 82% 30.12 in 6.2 mi Variable 2.3 mph - N/A Rain Light Rain
8:30 AM 57.2 °F 50.0 °F 77% 30.12 in - Variable 3.5 mph - N/A   Clear
9:00 AM 57.2 °F 48.2 °F 72% 30.12 in - WNW 4.6 mph - N/A   Clear
9:30 AM 57.2 °F 48.2 °F 72% 30.12 in - Variable 3.5 mph - N/A   Clear
10:00 AM 59.0 °F 48.2 °F 67% 30.12 in - Variable 3.5 mph - N/A   Clear
10:30 AM 60.8 °F 39.2 °F 45% 30.12 in - NW 4.6 mph - N/A   Clear
11:00 AM 62.6 °F 37.4 °F 39% 30.12 in - WNW 4.6 mph - N/A   Clear
11:30 AM 64.4 °F 35.6 °F 34% 30.12 in - Variable 3.5 mph - N/A   Clear
12:00 PM 64.4 °F 35.6 °F 34% 30.12 in 6.2 mi Variable 3.5 mph - N/A   Mostly Cloudy
12:30 PM 64.4 °F 33.8 °F 32% 30.09 in 6.2 mi NW 4.6 mph - N/A   Mostly Cloudy
1:00 PM 66.2 °F 35.6 °F 32% 30.09 in - Variable 2.3 mph - N/A   Clear
1:30 PM 66.2 °F 35.6 °F 32% 30.09 in - Variable 3.5 mph - N/A   Clear
2:00 PM 66.2 °F 35.6 °F 32% 30.09 in - SE 4.6 mph - N/A   Clear
2:30 PM 68.0 °F 39.2 °F 35% 30.06 in - SSW 6.9 mph - N/A   Clear
3:00 PM 68.0 °F 39.2 °F 35% 30.06 in - WSW 6.9 mph - N/A   Clear
3:30 PM 68.0 °F 39.2 °F 35% 30.06 in - WNW 6.9 mph - N/A   Clear
4:00 PM 68.0 °F 39.2 °F 35% 30.04 in - South 5.8 mph - N/A   Clear
4:30 PM 68.0 °F 39.2 °F 35% 30.04 in - WSW 6.9 mph - N/A   Clear
5:00 PM 68.0 °F 39.2 °F 35% 30.04 in - WSW 5.8 mph - N/A   Clear
5:30 PM 68.0 °F 41.0 °F 37% 30.04 in - Variable 3.5 mph - N/A   Clear
6:00 PM 66.2 °F 41.0 °F 40% 30.04 in - WSW 4.6 mph - N/A   Clear
6:30 PM 66.2 °F 41.0 °F 40% 30.01 in - Variable 2.3 mph - N/A   Clear
7:00 PM 62.6 °F 42.8 °F 48% 30.04 in - Variable 3.5 mph - N/A   Clear
7:30 PM 60.8 °F 44.6 °F 55% 30.01 in - Variable 3.5 mph - N/A   Clear
8:00 PM 55.4 °F 46.4 °F 72% 30.04 in - ENE 4.6 mph - N/A   Clear
8:30 PM 55.4 °F 44.6 °F 67% 30.04 in - Variable 3.5 mph - N/A   Clear
9:00 PM 53.6 °F 44.6 °F 72% 30.04 in - Variable 3.5 mph - N/A   Clear
9:30 PM 53.6 °F 44.6 °F 72% 30.01 in - Variable 3.5 mph - N/A   Clear
10:00 PM 55.4 °F 44.6 °F 67% 30.01 in - Variable 2.3 mph - N/A   Clear
10:30 PM 53.6 °F 44.6 °F 72% 30.01 in - Variable 2.3 mph - N/A   Clear
11:00 PM 51.8 °F 44.6 °F 76% 30.01 in - Variable 2.3 mph - N/A   Clear
11:30 PM 50.0 °F 44.6 °F 82% 29.98 in - Variable 2.3 mph - N/A   Clear